SCOUT X-4 DEB, 976

Orbit data source: Space-Track

SCOUT X-4 DEB, 976 is space debris in LEO originally from a launch on Sat, 10 Oct 1964 UTC launched from the Air Force Western Test Range (AFWTR). Debris objects in space refer to the collection of defunct objects orbiting the Earth. Examples of debris include non-operational satellites, rocket bodies, and fragments generated from explosions, collisions, or faulty payload assembly.

Loading next visibility...
Identifier
976, 1964-064C
Orbit
LEO
Country
Flag of USUS
Related business
Manufacturer
APL
Mission
Spacecraft
Bus & Motor
Unknown
Mass
Unknown
Launch date (UTC)
1964-10-10 (61 years ago)
Launch vehicle
Unknown
Launch site
Air Force Western Test Range (AFWTR)
Object type
Payload
Rocket body
Debris
Shape & HBR
Unknown shape, 0.1 m
Radar Cross Section
Small (<0.1 m²)

Expand to show TLE details & history
Last TLE update: 11 hours ago

TLE from 11 hours ago
0 SCOUT X-4 DEB
1 00976U 64064C   25340.61708547  .00001117  00000-0  61711-3 0  9993
2 00976  79.3131 185.9873 0115089 187.6468 172.2946 14.07869732115873
Epoch: 2025-12-06T14:48Z
TLE epoch observation values (Epoch: 2025-12-06T14:48:36.184Z)
Latitude
-0.00003°
Longitude
-111.80573°
Altitude
952.159 km
Speed
7.334 km/s
True Right ascension
12h 23m 56s
True Declination
0° 00' 00"
Sunlit
Object was in daylight at epoch
Visualization orbit readout
Latitude
Unknown
Longitude
Unknown
Altitude
Unknown
Speed
Unknown
Apparent Right ascension
Unknown
Apparent Declination
Unknown
Sunlit
N/A
Visualization observer readout
Local Sidereal Time
00:15:44
Azimuth
Unknown
Elevation
Unknown
Doppler factor
Unknown
Orbital elements
Apogee altitude
947.298 km
Perigee altitude
780.601 km
Semi-major axis
7,242.086 km
Eccentricity
0.01151
Inclination
79.3131°
RAAN
185.9873°
Arg. of periapsis
187.6468°
True anomaly
172.46894°
Mean anomaly
172.2946°
Eccentric anomaly
172.38202°
Mean motion
3.52166 °/min
Orbital period
102.22 mins
BSTAR
0.00061711
Loading maneuver chart data...
Computing Atmospheric mass density...
Loading historical data...
Loading historical data...
Loading historical data...
Loading historical data...
Loading historical data...
Loading historical data...
Loading historical data...
Other satellites on launch #64 in the year 1964 (1964-10-10 UTC)

Documentation

Showing up to 5 results
|